Year,Month,Day,Hour,Minute,Value (Times are PST for temperature in C)
2006,10,11,00,16,9.30
2006,10,11,00,17,9.30
2006,10,11,00,18,9.30
2006,10,11,00,19,9.30
2006,10,11,00,20,9.30
2006,10,11,00,21,9.30
2006,10,11,00,22,9.30
2006,10,11,00,23,9.30
2006,10,11,00,24,9.30
2006,10,11,00,25,9.30
2006,10,11,00,26,9.30
2006,10,11,00,27,9.30
2006,10,11,00,28,9.30
2006,10,11,00,29,9.30
2006,10,11,00,30,9.30
2006,10,11,00,31,9.30
2006,10,11,00,32,9.30
2006,10,11,00,33,9.30
2006,10,11,00,34,9.30
2006,10,11,00,35,9.30
2006,10,11,00,36,9.30
2006,10,11,00,37,9.30
2006,10,11,00,38,9.30
2006,10,11,00,39,9.30
2006,10,11,00,40,9.30
2006,10,11,00,42,9.30
2006,10,11,00,43,9.30
2006,10,11,00,44,9.30
2006,10,11,00,45,9.30
2006,10,11,00,46,9.30
2006,10,11,00,47,9.30
2006,10,11,00,48,9.30
2006,10,11,00,49,9.30
2006,10,11,00,50,9.30
2006,10,11,00,51,9.30
2006,10,11,00,53,9.30
2006,10,11,00,54,9.30
2006,10,11,00,55,9.30
2006,10,11,00,56,9.30
2006,10,11,00,57,9.30
2006,10,11,00,58,9.30
2006,10,11,00,59,9.30
2006,10,11,01,01,9.30
2006,10,11,01,02,9.30
2006,10,11,01,03,9.30
2006,10,11,01,04,9.30
2006,10,11,01,05,9.30
2006,10,11,01,06,9.30
2006,10,11,01,07,9.30
2006,10,11,01,08,9.40
2006,10,11,01,10,9.40
2006,10,11,01,11,9.40
2006,10,11,01,12,9.40
2006,10,11,01,14,9.40
2006,10,11,01,15,9.40
2006,10,11,01,16,9.40
2006,10,11,01,17,9.40
2006,10,11,01,18,9.40
2006,10,11,01,19,9.40
2006,10,11,01,20,9.40
2006,10,11,01,22,9.50
2006,10,11,01,23,9.50
2006,10,11,01,24,9.50
2006,10,11,01,25,9.50
2006,10,11,01,26,9.50
2006,10,11,01,27,9.50
2006,10,11,01,28,9.50
2006,10,11,01,29,9.50
2006,10,11,01,30,9.40
2006,10,11,01,32,9.40
2006,10,11,01,33,9.40
2006,10,11,01,35,9.40
2006,10,11,01,36,9.40
2006,10,11,01,37,9.40
2006,10,11,01,38,9.40
2006,10,11,01,39,9.40
2006,10,11,01,40,9.40
2006,10,11,01,41,9.40
2006,10,11,01,42,9.40
2006,10,11,01,43,9.40
2006,10,11,01,44,9.40
2006,10,11,01,45,9.40
2006,10,11,01,46,9.40
2006,10,11,01,47,9.30
2006,10,11,01,48,9.30
2006,10,11,01,49,9.30
2006,10,11,01,50,9.30
2006,10,11,01,51,9.30
2006,10,11,01,52,9.30
2006,10,11,01,53,9.30
2006,10,11,01,54,9.30
2006,10,11,01,55,9.30
2006,10,11,01,56,9.30
2006,10,11,01,57,9.30
2006,10,11,01,58,9.30
2006,10,11,01,59,9.30
2006,10,11,02,01,9.30
2006,10,11,02,02,9.30
2006,10,11,02,04,9.20
2006,10,11,02,05,9.20
2006,10,11,02,06,9.20
2006,10,11,02,07,9.20
2006,10,11,02,08,9.20
2006,10,11,02,09,9.20
2006,10,11,02,10,9.20
2006,10,11,02,11,9.20
2006,10,11,02,12,9.20
2006,10,11,02,13,8.80
2006,10,11,02,14,8.80
2006,10,11,02,15,8.80
2006,10,11,02,16,8.80
2006,10,11,02,17,8.80
2006,10,11,02,18,8.80
2006,10,11,02,19,8.80
2006,10,11,02,20,8.80
2006,10,11,02,21,8.80
2006,10,11,02,22,8.80
2006,10,11,02,23,8.80
2006,10,11,02,24,8.80
2006,10,11,02,26,8.80
2006,10,11,02,27,8.80
2006,10,11,02,29,8.80
2006,10,11,02,30,8.80
2006,10,11,02,31,8.80
2006,10,11,02,32,8.80
2006,10,11,02,33,8.80
2006,10,11,02,34,8.80
2006,10,11,02,35,8.80
2006,10,11,02,37,8.80
2006,10,11,02,38,8.80
2006,10,11,02,39,8.80
2006,10,11,02,40,8.80
2006,10,11,02,41,8.80
2006,10,11,02,42,8.80
2006,10,11,02,44,8.80
2006,10,11,02,45,8.80
2006,10,11,02,46,8.80
2006,10,11,02,47,8.80
2006,10,11,02,48,8.80
2006,10,11,02,49,8.80
2006,10,11,02,50,8.80
2006,10,11,02,51,8.80
2006,10,11,02,52,8.80
2006,10,11,02,53,8.80
2006,10,11,02,54,8.80
2006,10,11,02,55,8.80
2006,10,11,02,56,8.80
2006,10,11,02,57,8.80
2006,10,11,02,58,8.80
2006,10,11,03,01,8.80
2006,10,11,03,02,8.80
2006,10,11,03,03,8.80
2006,10,11,03,04,8.80
2006,10,11,03,05,8.80
2006,10,11,03,07,8.80
2006,10,11,03,08,8.80
2006,10,11,03,09,8.80
2006,10,11,03,10,8.80
2006,10,11,03,11,8.80
2006,10,11,03,12,8.80
2006,10,11,03,13,8.80
2006,10,11,03,15,8.80
2006,10,11,03,16,8.80
2006,10,11,03,17,8.80
2006,10,11,03,18,8.80
2006,10,11,03,19,8.80
2006,10,11,03,20,8.80
2006,10,11,03,21,8.80
2006,10,11,03,22,8.80
2006,10,11,03,23,8.80
2006,10,11,03,24,8.80
2006,10,11,03,25,8.80
2006,10,11,03,27,8.80
2006,10,11,03,28,8.80
2006,10,11,03,29,8.80
2006,10,11,03,30,8.80
2006,10,11,03,31,8.90
2006,10,11,03,32,8.90
2006,10,11,03,33,8.90
2006,10,11,03,34,8.90
2006,10,11,03,35,8.90
2006,10,11,03,36,8.90
2006,10,11,03,37,8.90
2006,10,11,03,38,8.90
2006,10,11,03,39,8.90
2006,10,11,03,40,8.90
2006,10,11,03,41,8.90
2006,10,11,03,42,8.90
2006,10,11,03,43,8.90
2006,10,11,03,44,8.80
2006,10,11,03,45,8.80
2006,10,11,03,46,8.80
2006,10,11,03,48,8.80
2006,10,11,03,49,8.80
2006,10,11,03,50,8.80
2006,10,11,03,51,8.80
2006,10,11,03,52,8.80
2006,10,11,03,53,8.80
2006,10,11,03,54,8.80
2006,10,11,03,55,8.80
2006,10,11,03,56,8.80
2006,10,11,03,57,8.80
2006,10,11,03,58,8.80
2006,10,11,03,59,8.80
2006,10,11,04,00,8.80
2006,10,11,04,02,8.80
2006,10,11,04,03,8.80
2006,10,11,04,04,8.80
2006,10,11,04,05,8.80
2006,10,11,04,06,8.80
2006,10,11,04,07,8.80
2006,10,11,04,09,8.80
2006,10,11,04,10,8.70
2006,10,11,04,11,8.70
2006,10,11,04,12,8.70
2006,10,11,04,13,8.70
2006,10,11,04,14,8.70
2006,10,11,04,15,8.70
2006,10,11,04,16,8.70
2006,10,11,04,17,8.70
2006,10,11,04,18,8.70
2006,10,11,04,19,8.70
2006,10,11,04,20,8.70
2006,10,11,04,21,8.70
2006,10,11,04,23,8.70
2006,10,11,04,24,8.70
2006,10,11,04,25,8.70
2006,10,11,04,26,8.70
2006,10,11,04,27,8.70
2006,10,11,04,28,8.70
2006,10,11,04,29,8.70
2006,10,11,04,30,8.70
2006,10,11,04,31,8.70
2006,10,11,04,32,8.70
2006,10,11,04,34,8.70
2006,10,11,04,35,8.70
2006,10,11,04,37,8.60
2006,10,11,04,38,8.60
2006,10,11,04,39,8.60
2006,10,11,04,40,8.60
2006,10,11,04,42,8.60
2006,10,11,04,43,8.60
2006,10,11,04,44,8.60
2006,10,11,04,45,8.70
2006,10,11,04,46,8.70
2006,10,11,04,47,8.70
2006,10,11,04,48,8.70
2006,10,11,04,49,8.60
2006,10,11,04,50,8.60
2006,10,11,04,51,8.60
2006,10,11,04,52,8.60
2006,10,11,04,53,8.60
2006,10,11,04,54,8.60
2006,10,11,04,55,8.60
2006,10,11,04,56,8.60
2006,10,11,04,57,8.60
2006,10,11,04,59,8.60
2006,10,11,05,01,8.60
2006,10,11,05,02,8.60
2006,10,11,05,03,8.60
2006,10,11,05,04,8.60
2006,10,11,05,05,8.60
2006,10,11,05,06,8.60
2006,10,11,05,07,8.60
2006,10,11,05,08,8.60
2006,10,11,05,09,8.60
2006,10,11,05,10,8.60
2006,10,11,05,11,8.60
2006,10,11,05,12,8.60
2006,10,11,05,13,8.60
2006,10,11,05,14,8.60
2006,10,11,05,15,8.50
2006,10,11,05,16,8.50
2006,10,11,05,17,8.50
2006,10,11,05,18,8.50
2006,10,11,05,19,8.50
2006,10,11,05,20,8.50
2006,10,11,05,21,8.50
2006,10,11,05,22,8.50
2006,10,11,05,23,8.50
2006,10,11,05,24,8.50
2006,10,11,05,26,8.50
2006,10,11,05,27,8.50
2006,10,11,05,28,8.50
2006,10,11,05,29,8.50
2006,10,11,05,30,8.50
2006,10,11,05,31,8.50
2006,10,11,05,32,8.50
2006,10,11,05,33,8.50
2006,10,11,05,34,8.50
2006,10,11,05,36,8.50
2006,10,11,05,37,8.50
2006,10,11,05,38,8.50
2006,10,11,05,39,8.50
2006,10,11,05,40,8.50
2006,10,11,05,41,8.60
2006,10,11,05,42,8.60
2006,10,11,05,43,8.60
2006,10,11,05,44,8.60
2006,10,11,05,45,8.60
2006,10,11,05,47,8.60
2006,10,11,05,48,8.60
2006,10,11,05,49,8.60
2006,10,11,05,50,8.50
2006,10,11,05,51,8.50
2006,10,11,05,52,8.50
2006,10,11,05,53,8.50
2006,10,11,05,54,8.50
2006,10,11,05,55,8.50
2006,10,11,05,56,8.50
2006,10,11,05,57,8.50
2006,10,11,05,58,8.50
2006,10,11,05,59,8.50
2006,10,11,06,01,8.50
2006,10,11,06,02,8.50
2006,10,11,06,03,8.50
2006,10,11,06,04,8.50
2006,10,11,06,05,8.50
2006,10,11,06,07,8.50
2006,10,11,06,08,8.50
2006,10,11,06,10,8.50
2006,10,11,06,11,8.50
2006,10,11,06,12,8.50
2006,10,11,06,13,8.50
2006,10,11,06,14,8.50
2006,10,11,06,15,8.50
2006,10,11,06,16,8.50
2006,10,11,06,17,8.50
2006,10,11,06,18,8.50
2006,10,11,06,19,8.50
2006,10,11,06,20,8.40
2006,10,11,06,22,8.40
2006,10,11,06,23,8.50
2006,10,11,06,24,8.50
2006,10,11,06,25,8.50
2006,10,11,06,26,8.50
2006,10,11,06,27,8.50
2006,10,11,06,28,8.50
2006,10,11,06,29,8.50
2006,10,11,06,30,8.50
2006,10,11,06,31,8.50
2006,10,11,06,32,8.40
2006,10,11,06,33,8.40
2006,10,11,06,34,8.40
2006,10,11,06,35,8.40
2006,10,11,06,37,8.40
2006,10,11,06,38,8.40
2006,10,11,06,39,8.40
2006,10,11,06,40,8.40
2006,10,11,06,42,8.40
2006,10,11,06,43,8.40
2006,10,11,06,44,8.40
2006,10,11,06,45,8.50
2006,10,11,06,46,8.50
2006,10,11,06,47,8.50
2006,10,11,06,48,8.50
2006,10,11,06,49,8.50
2006,10,11,06,50,8.50
2006,10,11,06,51,8.50
2006,10,11,06,52,8.50
2006,10,11,06,53,8.50
2006,10,11,06,55,8.50
2006,10,11,06,56,8.50
2006,10,11,06,57,8.50
2006,10,11,06,58,8.50
2006,10,11,06,59,8.50
2006,10,11,07,01,8.50
2006,10,11,07,02,8.50
2006,10,11,07,03,8.50
2006,10,11,07,05,8.50
2006,10,11,07,06,8.50
2006,10,11,07,07,8.50
2006,10,11,07,08,8.50
2006,10,11,07,09,8.50
2006,10,11,07,10,8.50
2006,10,11,07,11,8.60
2006,10,11,07,12,8.60
2006,10,11,07,13,8.60
2006,10,11,07,15,8.60
2006,10,11,07,16,8.60
2006,10,11,07,17,8.60
2006,10,11,07,18,8.60
2006,10,11,07,19,8.60
2006,10,11,07,20,8.60
2006,10,11,07,21,8.60
2006,10,11,07,22,8.60
2006,10,11,07,23,8.60
2006,10,11,07,24,8.60
2006,10,11,07,25,8.60
2006,10,11,07,26,8.60
2006,10,11,07,27,8.60
2006,10,11,07,28,8.60
2006,10,11,07,29,8.60
2006,10,11,07,30,8.60
2006,10,11,07,31,8.60
2006,10,11,07,32,8.60
2006,10,11,07,33,8.60
2006,10,11,07,34,8.60
2006,10,11,07,35,8.60
2006,10,11,07,36,8.60
2006,10,11,07,38,8.60
2006,10,11,07,39,8.60
2006,10,11,07,40,8.60
2006,10,11,07,41,8.60
2006,10,11,07,42,8.60
2006,10,11,07,43,8.60
2006,10,11,07,44,8.60
2006,10,11,07,45,8.60
2006,10,11,07,46,8.60
2006,10,11,07,47,8.60
2006,10,11,07,48,8.60
2006,10,11,07,49,8.60
2006,10,11,07,50,8.70
2006,10,11,07,51,8.70
2006,10,11,07,52,8.70
2006,10,11,07,53,8.70
2006,10,11,07,54,8.70
2006,10,11,07,55,8.70
2006,10,11,07,56,8.70
2006,10,11,07,57,8.70
2006,10,11,07,58,8.70
2006,10,11,07,59,8.80
2006,10,11,08,00,8.80
2006,10,11,08,02,8.80
2006,10,11,08,04,8.70
2006,10,11,08,05,8.70
2006,10,11,08,06,8.70
2006,10,11,08,08,8.70
2006,10,11,08,09,8.70
2006,10,11,08,10,8.70
2006,10,11,08,11,8.70
2006,10,11,08,12,8.70
2006,10,11,08,13,8.70
2006,10,11,08,14,8.70
2006,10,11,08,15,8.70
2006,10,11,08,16,8.80
2006,10,11,08,17,8.80
2006,10,11,08,18,8.80
2006,10,11,08,19,8.80
2006,10,11,08,20,8.80
2006,10,11,08,21,8.80
2006,10,11,08,22,8.80
2006,10,11,08,23,8.80
2006,10,11,08,24,8.80
2006,10,11,08,25,8.80
2006,10,11,08,26,8.80
2006,10,11,08,27,8.80
2006,10,11,08,28,8.80
2006,10,11,08,29,8.80
2006,10,11,08,30,8.80
2006,10,11,08,31,8.80
2006,10,11,08,32,8.80
2006,10,11,08,33,8.80
2006,10,11,08,34,8.80
2006,10,11,08,35,8.80
2006,10,11,08,36,8.80
2006,10,11,08,37,8.80
2006,10,11,08,39,8.80
2006,10,11,08,40,8.80
2006,10,11,08,41,8.80
2006,10,11,08,42,8.80
2006,10,11,08,43,8.80
2006,10,11,08,44,8.80
2006,10,11,08,45,8.80
2006,10,11,08,46,8.80
2006,10,11,08,47,8.80
2006,10,11,08,48,8.80
2006,10,11,08,49,8.80
2006,10,11,08,50,8.80
2006,10,11,08,51,8.80
2006,10,11,08,52,8.80
2006,10,11,08,54,8.80
2006,10,11,08,55,9.00
2006,10,11,08,56,9.00
2006,10,11,08,57,9.00
2006,10,11,08,58,9.00
2006,10,11,08,59,9.00
2006,10,11,09,00,9.00
2006,10,11,09,02,9.00
2006,10,11,09,03,9.00
2006,10,11,09,05,9.30
2006,10,11,09,06,9.30
2006,10,11,09,07,9.30
2006,10,11,09,08,9.30
2006,10,11,09,09,9.30
2006,10,11,09,10,9.30
2006,10,11,09,11,9.30
2006,10,11,09,12,9.30
2006,10,11,09,13,9.30
2006,10,11,09,14,9.30
2006,10,11,09,15,9.30
2006,10,11,09,16,9.30
2006,10,11,09,17,9.30
2006,10,11,09,18,9.30
2006,10,11,09,19,9.30
2006,10,11,09,20,9.30
2006,10,11,09,21,9.50
2006,10,11,09,22,9.50
2006,10,11,09,23,9.50
2006,10,11,09,24,9.50
2006,10,11,09,25,9.50
2006,10,11,09,27,9.50
2006,10,11,09,28,9.50
2006,10,11,09,29,9.50
2006,10,11,09,31,9.50
2006,10,11,09,32,9.50
2006,10,11,09,34,10.00
2006,10,11,09,35,10.00
2006,10,11,09,36,10.00
2006,10,11,09,37,10.10
2006,10,11,09,39,10.10
2006,10,11,09,40,10.10
2006,10,11,09,41,10.10
2006,10,11,09,42,10.10
2006,10,11,09,43,10.10
2006,10,11,09,44,10.10
2006,10,11,09,45,10.10
2006,10,11,09,46,10.10
2006,10,11,09,47,10.20
2006,10,11,09,48,10.20
2006,10,11,09,49,10.20
2006,10,11,09,50,10.20
2006,10,11,09,51,10.20
2006,10,11,09,52,10.20
2006,10,11,09,53,10.20
2006,10,11,09,54,10.20
2006,10,11,09,55,10.20
2006,10,11,09,56,10.20
2006,10,11,09,57,10.20
2006,10,11,09,58,10.20
2006,10,11,09,59,10.20
2006,10,11,10,01,10.70
2006,10,11,10,02,10.70
2006,10,11,10,03,10.70
2006,10,11,10,04,10.70
2006,10,11,10,05,10.70
2006,10,11,10,06,10.70
2006,10,11,10,07,10.70
2006,10,11,10,08,10.70
2006,10,11,10,09,10.80
2006,10,11,10,11,10.80
2006,10,11,10,12,10.80
2006,10,11,10,13,10.80
2006,10,11,10,14,10.80
2006,10,11,10,15,10.80
2006,10,11,10,16,10.80
2006,10,11,10,17,10.80
2006,10,11,10,18,10.80
2006,10,11,10,19,10.80
2006,10,11,10,20,10.80
2006,10,11,10,21,10.80
2006,10,11,10,23,10.80
2006,10,11,10,24,10.80
2006,10,11,10,25,10.80
2006,10,11,10,26,11.00
2006,10,11,10,27,11.00
2006,10,11,10,28,11.00
2006,10,11,10,29,11.00
2006,10,11,10,30,11.00
2006,10,11,10,31,11.00
2006,10,11,10,32,11.00
2006,10,11,10,33,11.00
2006,10,11,10,34,11.00
2006,10,11,10,35,11.00
2006,10,11,10,36,11.00
2006,10,11,10,37,11.00
2006,10,11,10,38,11.00
2006,10,11,10,39,11.00
2006,10,11,10,40,11.00
2006,10,11,10,41,11.00
2006,10,11,10,43,11.60
2006,10,11,10,44,11.60
2006,10,11,10,45,11.60
2006,10,11,10,46,11.60
2006,10,11,10,47,11.60
2006,10,11,10,48,11.60
2006,10,11,10,49,11.60
2006,10,11,10,50,11.60
2006,10,11,10,51,11.60
2006,10,11,10,52,11.50
2006,10,11,10,53,11.50
2006,10,11,10,54,11.50
2006,10,11,10,55,11.50
2006,10,11,10,56,11.50
2006,10,11,10,57,11.50
2006,10,11,10,58,11.50
2006,10,11,10,59,11.50
2006,10,11,11,01,11.50
2006,10,11,11,02,11.50
2006,10,11,11,03,11.50
2006,10,11,11,04,11.50
2006,10,11,11,05,11.70
2006,10,11,11,06,11.70
2006,10,11,11,07,11.70
2006,10,11,11,08,11.70
2006,10,11,11,09,11.70
2006,10,11,11,10,11.70
2006,10,11,11,11,11.70
2006,10,11,11,13,11.70
2006,10,11,11,14,11.80
2006,10,11,11,15,11.80
2006,10,11,11,16,11.80
2006,10,11,11,17,11.80
2006,10,11,11,18,11.80
2006,10,11,11,19,11.80
2006,10,11,11,20,11.80
2006,10,11,11,21,11.80
2006,10,11,11,23,11.80
2006,10,11,11,24,11.80
2006,10,11,11,25,11.80
2006,10,11,11,26,11.80
2006,10,11,11,27,11.80
2006,10,11,11,28,11.80
2006,10,11,11,29,11.80
2006,10,11,11,30,11.80
2006,10,11,11,31,11.80
2006,10,11,11,32,11.80
2006,10,11,11,33,11.80
2006,10,11,11,34,11.80
2006,10,11,11,35,11.80
2006,10,11,11,36,11.80
2006,10,11,11,37,11.80
2006,10,11,11,38,11.80
2006,10,11,11,39,11.80
2006,10,11,11,40,11.80
2006,10,11,11,41,11.80
2006,10,11,11,42,11.80
2006,10,11,11,43,11.80
2006,10,11,11,45,12.30
2006,10,11,11,46,12.30
2006,10,11,11,48,12.30
2006,10,11,11,49,12.30
2006,10,11,11,50,12.30
2006,10,11,11,51,12.30
2006,10,11,11,52,12.30
2006,10,11,11,53,12.30
2006,10,11,11,55,12.30
2006,10,11,11,56,12.30
2006,10,11,11,57,11.70
2006,10,11,11,58,11.70
2006,10,11,11,59,11.70
2006,10,11,12,00,11.70
2006,10,11,12,02,11.70
2006,10,11,12,03,11.70
2006,10,11,12,04,11.70
2006,10,11,12,06,11.70
2006,10,11,12,07,11.70
2006,10,11,12,08,11.70
2006,10,11,12,09,11.70
2006,10,11,12,10,11.50
2006,10,11,12,11,11.50
2006,10,11,12,12,11.50
2006,10,11,12,13,11.50
2006,10,11,12,14,11.50
2006,10,11,12,15,11.50
2006,10,11,12,16,11.50
2006,10,11,12,17,11.50
2006,10,11,12,18,11.50
2006,10,11,12,19,11.60
2006,10,11,12,20,11.60
2006,10,11,12,21,11.60
2006,10,11,12,22,11.60
2006,10,11,12,24,11.60
2006,10,11,12,25,11.60
2006,10,11,12,26,11.60
2006,10,11,12,27,11.60
2006,10,11,12,28,11.60
2006,10,11,12,29,11.60
2006,10,11,12,30,11.60
2006,10,11,12,31,11.60
2006,10,11,12,32,11.60
2006,10,11,12,33,11.60
2006,10,11,12,34,11.60
2006,10,11,12,35,11.60
2006,10,11,12,36,11.90
2006,10,11,12,37,11.90
2006,10,11,12,39,11.90
2006,10,11,12,40,11.90
2006,10,11,12,41,11.90
2006,10,11,12,42,11.90
2006,10,11,12,43,11.90
2006,10,11,12,44,11.90
2006,10,11,12,46,11.90
2006,10,11,12,47,11.90
2006,10,11,12,48,11.90
2006,10,11,12,49,12.10
2006,10,11,12,50,12.10
2006,10,11,12,51,12.10
2006,10,11,12,52,12.20
2006,10,11,12,53,12.20
2006,10,11,12,54,12.20
2006,10,11,12,55,12.20
2006,10,11,12,56,12.20
2006,10,11,12,57,12.20
2006,10,11,12,58,12.20
2006,10,11,12,59,12.20
2006,10,11,13,01,12.20
2006,10,11,13,02,12.20
2006,10,11,13,03,12.20
2006,10,11,13,04,12.20
2006,10,11,13,05,12.20
2006,10,11,13,06,12.20
2006,10,11,13,07,12.20
2006,10,11,13,08,12.20
2006,10,11,13,09,12.20
2006,10,11,13,10,12.20
2006,10,11,13,11,12.20
2006,10,11,13,12,12.20
2006,10,11,13,13,12.20
2006,10,11,13,14,12.20
2006,10,11,13,15,12.20
2006,10,11,13,16,12.20
2006,10,11,13,17,12.20
2006,10,11,13,18,12.20
2006,10,11,13,19,12.20
2006,10,11,13,20,12.20
2006,10,11,13,21,12.20
2006,10,11,13,22,12.20
2006,10,11,13,23,12.20
2006,10,11,13,24,11.80
2006,10,11,13,25,11.80
2006,10,11,13,26,11.80
2006,10,11,13,27,11.80
2006,10,11,13,28,11.90
2006,10,11,13,29,11.90
2006,10,11,13,30,11.90
2006,10,11,13,31,11.90
2006,10,11,13,32,11.90
2006,10,11,13,33,11.90
2006,10,11,13,34,11.90
2006,10,11,13,35,11.90
2006,10,11,13,36,11.90
2006,10,11,13,37,11.90
2006,10,11,13,38,11.90
2006,10,11,13,39,11.90
2006,10,11,13,40,11.90
2006,10,11,13,41,11.90
2006,10,11,13,42,11.90
2006,10,11,13,43,11.90
2006,10,11,13,44,11.90
2006,10,11,13,45,11.90
2006,10,11,13,46,11.90
2006,10,11,13,47,11.90
2006,10,11,13,48,11.90
2006,10,11,13,49,11.90
2006,10,11,13,50,11.90
2006,10,11,13,51,11.90
2006,10,11,13,52,11.90
2006,10,11,13,53,11.90
2006,10,11,13,54,12.30
2006,10,11,13,55,12.30
2006,10,11,13,56,12.30
2006,10,11,13,57,12.30
2006,10,11,13,58,12.30
2006,10,11,13,59,12.30
2006,10,11,14,01,12.30
2006,10,11,14,02,12.30
2006,10,11,14,03,12.30
2006,10,11,14,04,12.30
2006,10,11,14,05,12.30
2006,10,11,14,06,12.30
2006,10,11,14,07,12.20
2006,10,11,14,08,12.20
2006,10,11,14,09,12.20
2006,10,11,14,10,12.20
2006,10,11,14,11,12.20
2006,10,11,14,12,12.20
2006,10,11,14,13,12.20
2006,10,11,14,14,12.20
2006,10,11,14,15,12.20
2006,10,11,14,16,12.20
2006,10,11,14,17,12.20
2006,10,11,14,19,12.20
2006,10,11,14,20,12.40
2006,10,11,14,21,12.40
2006,10,11,14,22,12.40
2006,10,11,14,23,12.40
2006,10,11,14,24,12.40
2006,10,11,14,25,12.40
2006,10,11,14,26,12.40
2006,10,11,14,27,12.40
2006,10,11,14,28,12.40
2006,10,11,14,29,12.20
2006,10,11,14,30,12.20
2006,10,11,14,31,12.20
2006,10,11,14,32,12.20
2006,10,11,14,33,12.40
2006,10,11,14,34,12.40
2006,10,11,14,35,12.40
2006,10,11,14,36,12.40
2006,10,11,14,37,12.40
2006,10,11,14,38,12.40
2006,10,11,14,39,12.40
2006,10,11,14,40,12.40
2006,10,11,14,41,12.40
2006,10,11,14,42,12.40
2006,10,11,14,43,12.40
2006,10,11,14,44,12.40
2006,10,11,14,45,12.40
2006,10,11,14,46,11.80
2006,10,11,14,47,11.80
2006,10,11,14,48,11.80
2006,10,11,14,49,11.80
2006,10,11,14,50,11.80
2006,10,11,14,51,11.80
2006,10,11,14,52,11.80
2006,10,11,14,53,11.80
2006,10,11,14,54,11.80
2006,10,11,14,55,11.80
2006,10,11,14,56,11.80
2006,10,11,14,57,11.80
2006,10,11,14,58,11.80
2006,10,11,14,59,11.90
2006,10,11,15,01,11.90
2006,10,11,15,02,11.90
2006,10,11,15,03,11.90
2006,10,11,15,04,11.90
2006,10,11,15,05,11.90
2006,10,11,15,06,11.90
2006,10,11,15,07,11.90
2006,10,11,15,08,11.90
2006,10,11,15,09,11.90
2006,10,11,15,10,11.90
2006,10,11,15,11,11.90
2006,10,11,15,12,11.70
2006,10,11,15,13,11.70
2006,10,11,15,14,11.70
2006,10,11,15,15,11.70
2006,10,11,15,16,11.70
2006,10,11,15,17,11.70
2006,10,11,15,19,11.70
2006,10,11,15,20,11.70
2006,10,11,15,21,11.70
2006,10,11,15,22,11.70
2006,10,11,15,23,11.70
2006,10,11,15,24,11.70
2006,10,11,15,25,12.10
2006,10,11,15,26,12.10
2006,10,11,15,27,12.10
2006,10,11,15,28,12.10
2006,10,11,15,29,12.10
2006,10,11,15,30,12.10
2006,10,11,15,31,12.10
2006,10,11,15,32,12.10
2006,10,11,15,33,12.10
2006,10,11,15,34,12.30
2006,10,11,15,35,12.30
2006,10,11,15,36,12.30
2006,10,11,15,38,12.30
2006,10,11,15,39,12.30
2006,10,11,15,40,12.30
2006,10,11,15,42,12.30
2006,10,11,15,43,12.30
2006,10,11,15,44,12.30
2006,10,11,15,45,12.30
2006,10,11,15,46,12.30
2006,10,11,15,47,12.30
2006,10,11,15,48,12.30
2006,10,11,15,49,12.30
2006,10,11,15,50,12.30
2006,10,11,15,51,12.40
2006,10,11,15,52,12.40
2006,10,11,15,53,12.40
2006,10,11,15,54,12.40
2006,10,11,15,55,12.40
2006,10,11,15,56,12.40
2006,10,11,15,57,12.40
2006,10,11,15,58,12.40
2006,10,11,15,59,12.40
2006,10,11,16,01,12.40
2006,10,11,16,02,12.40
2006,10,11,16,03,12.40
2006,10,11,16,05,12.30
2006,10,11,16,06,12.30
2006,10,11,16,07,12.40
2006,10,11,16,08,12.40
2006,10,11,16,09,12.40
2006,10,11,16,10,12.40
2006,10,11,16,11,12.40
2006,10,11,16,12,12.40
2006,10,11,16,13,12.40
2006,10,11,16,14,12.40
2006,10,11,16,15,12.40
2006,10,11,16,16,12.40
2006,10,11,16,17,12.80
2006,10,11,16,18,12.80
2006,10,11,16,19,12.80
2006,10,11,16,20,12.80
2006,10,11,16,21,12.80
2006,10,11,16,22,12.80
2006,10,11,16,23,12.80
2006,10,11,16,24,12.80
2006,10,11,16,25,12.80
2006,10,11,16,26,12.80
2006,10,11,16,27,12.80
2006,10,11,16,28,12.80
2006,10,11,16,29,12.80
2006,10,11,16,30,12.80
2006,10,11,16,31,12.80
2006,10,11,16,32,12.80
2006,10,11,16,33,12.80
2006,10,11,16,34,12.80
2006,10,11,16,35,12.80
2006,10,11,16,36,12.80
2006,10,11,16,37,12.80
2006,10,11,16,38,12.80
2006,10,11,16,39,13.10
2006,10,11,16,40,13.10
2006,10,11,16,41,13.10
2006,10,11,16,42,13.10
2006,10,11,16,43,12.90
2006,10,11,16,44,12.90
2006,10,11,16,45,12.90
2006,10,11,16,46,12.90
2006,10,11,16,47,12.90
2006,10,11,16,48,12.90
2006,10,11,16,49,12.90
2006,10,11,16,50,12.90
2006,10,11,16,51,12.90
2006,10,11,16,52,12.90
2006,10,11,16,53,12.90
2006,10,11,16,54,12.90
2006,10,11,16,55,12.90
2006,10,11,16,56,12.70
2006,10,11,16,57,12.70
2006,10,11,16,58,12.70
2006,10,11,16,59,12.70
2006,10,11,17,01,12.70
2006,10,11,17,02,12.70
2006,10,11,17,03,12.70
2006,10,11,17,04,12.70
2006,10,11,17,06,12.70
2006,10,11,17,07,12.70
2006,10,11,17,08,12.70
2006,10,11,17,09,12.60
2006,10,11,17,10,12.60
2006,10,11,17,11,12.60
2006,10,11,17,12,12.60
2006,10,11,17,13,12.60
2006,10,11,17,14,12.60
2006,10,11,17,15,12.60
2006,10,11,17,16,12.60
2006,10,11,17,17,12.60
2006,10,11,17,18,12.60
2006,10,11,17,19,12.60
2006,10,11,17,20,12.60
2006,10,11,17,21,12.60
2006,10,11,17,22,12.90
2006,10,11,17,23,12.90
2006,10,11,17,24,12.90
2006,10,11,17,25,12.90
2006,10,11,17,26,12.90
2006,10,11,17,27,12.90
2006,10,11,17,28,12.90
2006,10,11,17,29,12.90
2006,10,11,17,30,12.90
2006,10,11,17,31,12.90
2006,10,11,17,32,12.90
2006,10,11,17,33,12.90
2006,10,11,17,34,12.90
2006,10,11,17,35,13.40
2006,10,11,17,36,13.40
2006,10,11,17,37,13.40
2006,10,11,17,38,13.40
2006,10,11,17,39,13.40
2006,10,11,17,40,13.40
2006,10,11,17,41,13.40
2006,10,11,17,42,13.40
2006,10,11,17,43,13.40
2006,10,11,17,44,13.20
2006,10,11,17,45,13.20
2006,10,11,17,46,13.20
2006,10,11,17,47,13.20
2006,10,11,17,48,13.10
2006,10,11,17,49,13.10
2006,10,11,17,50,13.10
2006,10,11,17,51,13.10
2006,10,11,17,52,13.10
2006,10,11,17,53,13.10
2006,10,11,17,54,13.10
2006,10,11,17,55,13.10
2006,10,11,17,56,13.10
2006,10,11,17,57,13.10
2006,10,11,17,58,13.10
2006,10,11,17,59,13.10
2006,10,11,18,01,12.70
2006,10,11,18,02,12.70
2006,10,11,18,03,12.70
2006,10,11,18,04,12.70
2006,10,11,18,05,12.70
2006,10,11,18,06,12.70
2006,10,11,18,07,12.70
2006,10,11,18,08,12.70
2006,10,11,18,10,12.70
2006,10,11,18,11,12.70
2006,10,11,18,12,12.70
2006,10,11,18,13,12.70
2006,10,11,18,14,13.10
2006,10,11,18,15,13.10
2006,10,11,18,16,13.10
2006,10,11,18,18,13.10
2006,10,11,18,19,13.10
2006,10,11,18,20,13.10
2006,10,11,18,21,13.10
2006,10,11,18,22,13.10
2006,10,11,18,23,13.10
2006,10,11,18,24,13.10
2006,10,11,18,25,13.10
2006,10,11,18,26,13.10
2006,10,11,18,27,12.10
2006,10,11,18,29,12.10
2006,10,11,18,30,12.10
2006,10,11,18,31,12.10
2006,10,11,18,32,12.10
2006,10,11,18,33,12.10
2006,10,11,18,34,12.10
2006,10,11,18,35,12.10
2006,10,11,18,36,12.10
2006,10,11,18,37,12.10
2006,10,11,18,38,12.10
2006,10,11,18,39,12.10
2006,10,11,18,40,11.80
2006,10,11,18,41,11.80
2006,10,11,18,42,11.80
2006,10,11,18,43,11.80
2006,10,11,18,44,11.80
2006,10,11,18,45,11.80
2006,10,11,18,46,11.80
2006,10,11,18,47,11.80
2006,10,11,18,48,11.80
2006,10,11,18,50,11.60
2006,10,11,18,51,11.60
2006,10,11,18,52,11.60
2006,10,11,18,53,11.40
2006,10,11,18,54,11.40
2006,10,11,18,55,11.40
2006,10,11,18,56,11.40
2006,10,11,18,57,11.40
2006,10,11,18,58,11.40
2006,10,11,19,01,11.40
2006,10,11,19,02,11.40
2006,10,11,19,04,11.40
2006,10,11,19,06,10.50
2006,10,11,19,07,10.50
2006,10,11,19,08,10.50
2006,10,11,19,09,10.50
2006,10,11,19,10,10.50
2006,10,11,19,11,10.50
2006,10,11,19,12,10.50
2006,10,11,19,13,10.50
2006,10,11,19,14,10.50
2006,10,11,19,15,10.50
2006,10,11,19,17,10.50
2006,10,11,19,18,10.50
2006,10,11,19,19,10.20
2006,10,11,19,20,10.20
2006,10,11,19,21,10.20
2006,10,11,19,22,10.20
2006,10,11,19,23,10.20
2006,10,11,19,24,10.20
2006,10,11,19,25,10.20
2006,10,11,19,26,10.20